Wetbulb
60.52 60.25 59.87 59.56 59.59 59.49 59.23 59.30 59.86 59.93 59.65 60.07 61.03 61.46 60.90 59.37 59.21 59.30 58.84 57.53 57.67 57.13
60.89 60.63 59.90 59.27 59.61 59.33 59.21 59.87 59.45 60.42 60.57 61.09 61.97 61.84 61.35 59.94 59.56 59.52 58.72 59.00 58.52 58.15
60.88 60.76 60.48 60.22 59.74 59.73 58.64 59.81 60.37 60.16 60.80 61.41 61.31 61.11 60.35 59.40 60.29 60.15 60.33 59.88 60.00 59.41
60.44 60.49 60.07 59.19 59.58 59.46 58.65 59.60 59.66 60.51 61.15 61.19 60.32 60.00 59.40 60.48 61.17 61.02 60.43 59.78 58.98 58.90
60.03 59.33 59.36 59.54 59.49 59.08 58.40 59.42 59.68 60.30 61.88 61.86 61.19 60.20 59.97 60.88 61.51 59.68 59.75 59.61 58.71 57.97
61.14 59.12 58.90 59.17 59.58 57.99 57.66 58.61 61.37 59.65 60.97 61.17 61.24 60.65 60.68 61.44 61.82 59.73 59.25 59.19 58.68 57.75
59.69 59.64 58.92 59.24 58.81 58.59 58.54 60.24 60.47 61.64 62.44 61.74 61.09 61.84 62.67 62.74 61.38 59.95 59.09 58.82 59.06 58.88
60.82 60.20 59.06 59.33 59.07 61.47 60.81 61.00 61.87 61.88 60.22 59.04 59.03 57.76 59.26 61.22 59.94 59.33 59.00 59.58 60.55 61.31
61.94 60.36 60.17 58.87 57.91 58.48 59.17 60.07 61.03 60.18 58.49 57.19 57.11 47.47 50.08 57.63 59.52 59.97 59.49 58.08 59.38 59.36
61.21 60.43 60.02 60.40 59.03 57.53 60.15 60.24 60.72 57.68 56.21 55.24 53.96 46.46 47.00 53.35 59.94 59.12 59.42 60.08 59.70 58.89
60.13 59.59 59.56 58.79 57.20 57.83 58.29 58.49 58.23 56.37 55.95 54.86 54.57 46.64 47.00 52.44 59.63 59.24 60.29 60.60 59.28 58.41
59.85 58.78 59.72 59.92 57.82 57.61 58.12 57.22 57.49 57.45 55.79 55.12 54.26 46.09 47.36 56.23 59.04 59.32 60.38 61.02 59.73 59.28
59.69 59.78 59.96 60.60 58.59 58.34 58.16 59.27 59.82 57.87 56.49 53.77 55.26 45.55 46.46 55.95 59.94 59.09 59.56 60.00 57.66 51.61
59.59 59.31 59.39 58.87 58.52 58.89 58.94 59.15 59.66 57.71 56.15 55.59 54.97 52.43 46.82 51.17 58.96 59.54 59.31 58.84 57.67 55.37
MSLP
1003.50 1004.28 1005.00 1005.45 1005.91 1006.37 1006.77 1006.82 1006.93 1007.14 1007.27 1007.37 1007.45 1007.45 1007.47 1007.71 1007.88 1007.94 1008.16 1008.31 1008.41 1008.52
1004.00 1004.62 1005.23 1005.68 1005.95 1006.28 1006.42 1006.68 1006.86 1006.97 1007.06 1007.12 1007.05 1007.10 1007.18 1007.33 1007.42 1007.57 1007.74 1007.85 1008.04 1008.09
1004.23 1004.62 1005.11 1005.44 1005.88 1006.05 1006.42 1006.56 1006.68 1006.81 1006.87 1006.94 1006.84 1006.89 1006.93 1007.02 1007.16 1007.32 1007.37 1007.48 1007.60 1007.76
1004.32 1004.67 1005.15 1005.49 1005.82 1006.11 1006.35 1006.40 1006.62 1006.64 1006.77 1006.76 1006.81 1006.73 1006.74 1006.62 1006.87 1007.14 1007.12 1007.30 1007.44 1007.66
1004.40 1004.81 1005.30 1005.68 1005.86 1006.05 1006.24 1006.34 1006.40 1006.47 1006.50 1006.53 1006.72 1006.66 1006.65 1006.69 1006.79 1007.04 1007.03 1007.19 1007.51 1007.63
1004.46 1004.89 1005.30 1005.63 1005.77 1005.92 1006.15 1006.18 1006.22 1006.28 1006.35 1006.57 1006.76 1006.75 1006.67 1006.72 1006.83 1006.98 1007.13 1007.24 1007.34 1007.53
1004.39 1004.79 1005.18 1005.45 1005.77 1005.82 1006.08 1006.08 1006.03 1006.13 1006.44 1006.79 1006.87 1006.76 1006.66 1006.49 1006.72 1007.02 1007.19 1007.33 1007.36 1007.52
1004.30 1004.82 1005.16 1005.54 1005.65 1005.66 1005.97 1006.01 1006.08 1006.35 1006.92 1007.09 1007.13 1007.10 1007.00 1006.86 1007.02 1007.36 1007.47 1007.51 1007.56 1007.64
1004.33 1004.82 1005.17 1005.54 1005.73 1005.90 1005.96 1005.96 1006.36 1006.74 1007.28 1007.41 1007.50 1007.59 1007.37 1007.21 1007.36 1007.56 1007.56 1007.74 1007.97 1008.07
1004.31 1004.80 1005.10 1005.43 1005.72 1005.98 1006.05 1006.18 1006.62 1007.12 1007.50 1007.69 1007.88 1007.78 1007.52 1007.45 1007.59 1007.79 1007.98 1008.11 1008.29 1008.52
1004.15 1004.74 1005.04 1005.35 1005.73 1006.08 1006.26 1006.60 1007.03 1007.40 1007.73 1007.79 1008.08 1008.02 1007.79 1007.72 1007.93 1008.16 1008.28 1008.47 1008.73 1009.05
1004.06 1004.68 1005.04 1005.42 1005.84 1006.09 1006.37 1006.79 1007.14 1007.42 1007.83 1008.00 1008.26 1008.32 1008.06 1008.09 1008.38 1008.60 1008.73 1009.02 1009.45 1009.63
1004.02 1004.51 1004.97 1005.37 1005.84 1006.09 1006.35 1006.74 1007.17 1007.59 1007.82 1008.04 1008.39 1008.47 1008.31 1008.35 1008.68 1008.98 1009.13 1009.56 1010.12 1010.38
1003.95 1004.41 1004.82 1005.34 1005.82 1006.09 1006.41 1006.80 1007.28 1007.79 1007.99 1008.28 1008.47 1008.67 1008.54 1008.59 1008.93 1009.26 1009.55 1010.02 1010.64 1011.18
Wind_Speed
9 6 5 5 4 4 4 3 4 4 4 5 5 5 5 3 4 4 4 6 5 4
7 8 7 7 6 4 3 3 5 5 5 4 6 5 5 4 4 4 3 5 5 4
8 8 7 6 6 5 4 4 5 4 3 4 4 4 5 4 3 5 3 3 5 3
7 8 6 6 5 5 4 4 5 4 4 4 3 3 3 3 3 4 2 2 4 5
7 7 7 6 6 5 5 4 5 4 4 4 3 3 3 4 3 5 4 4 3 3
8 7 7 6 6 5 4 5 2 3 5 3 2 2 2 3 2 6 4 3 4 5
7 7 6 6 5 5 4 4 3 4 5 4 4 4 3 0 3 5 4 2 3 5
6 6 6 5 5 3 4 3 3 6 6 5 4 4 5 3 5 5 5 4 3 6
8 6 6 5 5 3 3 4 5 6 5 5 3 6 5 3 5 4 5 6 7 9
7 6 6 6 5 4 4 4 5 7 5 5 4 6 6 6 4 4 5 7 6 7
8 6 5 6 6 4 3 5 5 5 5 4 3 7 3 8 6 5 6 6 8 8
8 7 6 6 6 3 4 4 4 4 6 5 3 6 3 7 5 6 7 7 8 7
7 7 7 6 6 3 2 4 5 5 4 5 4 5 2 7 5 8 6 7 7 9
8 8 7 7 3 4 3 5 6 5 3 4 3 3 5 9 5 7 6 5 6 5
Wind_Direction
112 113 120 137 140 151 178 170 161 176 182 207 210 211 199 206 210 195 215 220 207 193
106 113 125 131 140 161 157 153 169 175 194 217 218 215 207 209 216 206 203 212 209 194
123 118 125 130 134 144 151 155 175 191 208 225 234 201 193 206 210 218 214 187 183 183
135 127 131 131 142 161 156 177 190 188 216 212 199 184 174 213 225 190 179 151 147 156
128 125 132 146 158 160 165 185 200 208 212 210 169 189 202 228 156 131 122 145 158 157
136 137 147 156 161 160 159 221 226 243 158 158 190 251 290 285 190 147 141 144 186 173
145 150 158 152 171 165 200 250 269 158 124 108 67 40 5 270 119 135 134 130 153 157
144 146 152 152 168 184 222 238 162 113 101 92 65 22 358 67 111 117 116 93 83 125
142 147 164 162 165 170 228 225 129 120 120 102 73 346 31 91 116 120 114 96 91 110
150 156 169 164 155 167 176 119 122 119 125 116 92 355 32 120 109 116 106 119 108 102
147 152 164 144 150 141 133 122 130 132 125 114 71 354 43 111 95 94 101 111 113 117
144 160 162 148 151 159 141 133 150 144 137 130 103 19 73 105 95 95 106 102 113 116
156 161 153 150 155 159 163 144 135 134 143 139 122 27 98 114 111 113 108 101 99 102
159 158 158 136 136 145 128 116 118 118 126 116 120 66 137 121 111 126 116 117 118 123